User: anonymous   Login
Location: Caltech
(34.1382°N, 118.1253°W)
Time: 02:42:48
(UTC-07:00)
Language:

SL-08 R/B - Orbit

View from above orbital plane
View from above orbital plane
View from above satellite
View from above satellite

Ground track
Ground track

The orbit data is extracted from the following two-line orbital elements,

1 27561U 02054C   15146.84540590  .00000180  00000-0  51602-4 0  9991
2 27561 098.1537 282.7127 0045981 345.7709 014.2190 14.55342439662840
Epoch (UTC): 26 May 2015 20:17:23
Eccentricity: 0.0045981
inclination: 98.1537°
perigee height: 675 km
apogee height: 741 km
right ascension of ascending node: 282.7127°
argument of perigee: 345.7709°
revolutions per day: 14.55342439
mean anomaly at epoch: 14.2190°
orbit number at epoch: 66284

The dashed part of the orbit path shows where the satellite is in the earth's shadow,  

DLR